Flag for Norway Weather past 2 weeks in Tønsberg, Norway

Now
57 °F

Passing clouds.


Feels Like: 53 °F
Forecast: 54 / 67 °F
Wind: 22 mph from Southwest

Location: Oseberg

Current Time: Sep 2, 2014 at 9:22:51 PM

Latest Report: Sep 2, 2014 at 8:50 PM


Visibility: N/A

Pressure: 30.24 "Hg

Humidity: 88%

Dew point: 54 °F

Location of TønsbergLocation

Historic Weather in Tønsberg — Graph

°F

Tønsberg temperature yesterday

Maximum temperature yesterday: 59 °F (at 12:50 AM)
Minimum temperature yesterday: 54 °F (at 3:50 PM)
Average temperature yesterday: 56 °F

Past Weeks' High & Low Weather Summary

 TemperatureHumidityPressure
High63 °F (Aug 31, 10:50 AM)100% (Aug 23, 10:50 AM)30.24 "Hg (Aug 23, 10:50 AM)
Low37 °F (Aug 23, 4:50 PM)63% (Aug 21, 4:20 PM)29.33 "Hg (Aug 18, 7:20 PM)
Average55 °F80%29.80 "Hg
* Reported Aug 18 7:20 PM — Sep 2 7:50 PM, Tønsberg, Weather by CustomWeather, © 2014

Note: Actual official high and low records may vary slightly from our data, if they occured in-between our weather recording intervals... More about our weather records

Advertising

Tønsberg weather history for previous 24 hours

 ConditionsComfort  
Time TempWeatherWind HumidityBarometerVisibility
7:50 PM
Sep 2
57 °FPartly sunny.20 mph88%30.24 "HgN/A
7:20 PM57 °FBroken clouds.20 mph88%30.24 "HgN/A
6:50 PM57 °FPartly sunny.20 mph88%30.24 "HgN/A
6:20 PM57 °FPartly sunny.18 mph88%30.24 "HgN/A
5:20 PM57 °FPartly sunny.18 mph88%30.24 "HgN/A
4:50 PM57 °FPartly sunny.21 mph88%30.24 "HgN/A
3:50 PM57 °FPassing clouds.20 mph88%30.24 "HgN/A
3:20 PM57 °FScattered clouds.21 mph82%30.24 "HgN/A
2:20 PM57 °FPassing clouds.18 mph88%30.24 "HgN/A
1:50 PM57 °FPassing clouds.22 mph88%30.24 "HgN/A
1:20 PM57 °FScattered clouds.17 mph88%30.21 "HgN/A
12:50 PM57 °FPartly sunny.18 mph88%30.21 "HgN/A
12:20 PM57 °FPartly sunny.18 mph88%30.21 "HgN/A
11:50 AM57 °FPartly sunny.18 mph82%30.21 "HgN/A
11:20 AM57 °FPartly sunny.18 mph82%30.21 "HgN/A
10:50 AM57 °FPartly sunny.17 mph88%30.21 "HgN/A
10:20 AM57 °FPartly sunny.18 mph88%30.18 "HgN/A
9:50 AM57 °FPartly sunny.18 mph88%30.18 "HgN/A
9:20 AM55 °FPartly sunny.18 mph94%30.18 "HgN/A
8:20 AM57 °FPartly sunny.17 mph88%30.15 "HgN/A
7:50 AM55 °FPartly sunny.16 mph94%30.15 "HgN/A
7:20 AM55 °FPartly sunny.16 mph94%30.15 "HgN/A
6:50 AM55 °FPassing clouds.18 mph94%30.15 "HgN/A
6:20 AM55 °FPassing clouds.18 mph94%30.15 "HgN/A
5:50 AM55 °FPassing clouds.17 mph94%30.15 "HgN/A
4:50 AM55 °FPassing clouds.16 mph94%30.12 "HgN/A
3:50 AM55 °FPassing clouds.18 mph88%30.12 "HgN/A
3:20 AM55 °FPassing clouds.18 mph82%30.12 "HgN/A
1:50 AM55 °FPassing clouds.20 mph77%30.12 "HgN/A
12:50 AM55 °FPassing clouds.18 mph88%30.12 "HgN/A
11:50 PM
Sep 1
55 °FPassing clouds.18 mph94%30.09 "HgN/A
10:50 PM55 °FPassing clouds.15 mph94%30.09 "HgN/A
9:50 PM55 °FPassing clouds.16 mph94%30.09 "HgN/A
9:20 PM55 °FPartly sunny.15 mph94%30.09 "HgN/A
Weather by CustomWeather, © 2014

See weather overviewHow to use our weather pages